Location: Ecklingerode
(51.5036°N, 10.3122°E)
Time: 07:41:23
(UTC+00:00)

H-2A R/B - Pass Details

Date: 29 October 2020
Orbit: 528 x 653 km, 98.3° (Epoch: 01 December)

Event Time Altitude Azimuth Distance (km) Brightness Sun altitude
Rises 16:22:51 0° 174° (S) 2,938 6.2 -4.7°
Reaches altitude 10° 16:25:04 10° 179° (S) 2,043 5.4 -5.0°
Maximum altitude 16:29:29 58° 258° (WSW) 763 3.5 -5.7°
Drops below altitude 10° 16:33:58 10° 338° (NNW) 2,074 5.4 -6.4°
Sets 16:36:14 0° 343° (NNW) 2,986 6.1 -6.7°
